221P/LINEAR (2002)

Japanese version
Home page
Updated on June 20, 2009

---------------------------------------------------------------------

* Profile

Designation 221P/2002 JN16
Discovery Date May 9, 2002
Magnitude 18.0 mag
Discoverer Lincoln Laboratory Near-Earth Asteroid Research project

* Orbital Elements

Epoch 2002 July 25.0 TT = JDT 2452480.5
T 2002 July 27.59252 TT                                 MPC
q   1.7905750            (2000.0)            P               Q
n   0.15153589     Peri.   39.62647     -0.01484426     +0.98830761
a   3.4843815      Node   230.07711     -0.96024365     -0.05640265
e   0.4861140      Incl.   11.41248     -0.27876833     +0.14165740
P   6.50

* Finding Charts

* Magnitudes Graph

        m1 = 14.5 + 5 log d + 10.0 log r

---------------------------------------------------------------------

The orbital elements are printed on CBET 1831.
The charts are made with StellaNavigator Ver.2.0 for Windows (AstroArts / ASCII).
The magnitudes graphs are made with Comet for Windows.

---------------------------------------------------------------------

Copyright(C) Seiichi Yoshida (comet@aerith.net). All rights reserved.